Flag for Slovakia Weather past 2 weeks in Piešťany, Slovakia

Now
55 °F

Partly sunny.


Feels Like: 54 °F
Forecast: 48 / 73 °F
Wind: 7 mph from North

Location: Piestany

Current Time: May 24, 2015 at 7:28:26 AM

Latest Report: May 24, 2015 at 7:00 AM


Visibility: N/A

Pressure: 29.95 "Hg

Humidity: 88%

Dew point: 52 °F

Location of PiešťanyLocation

Historic Weather in Piešťany — Graph

°F

Piešťany temperature yesterday

Maximum temperature yesterday: 61 °F (at 10:30 AM)
Minimum temperature yesterday: 54 °F (at 12:00 AM)
Average temperature yesterday: 56 °F

Past Weeks' High & Low Weather Summary

 TemperatureHumidityPressure
High77 °F (May 19, 1:00 PM)94% (May 9, 6:00 AM)30.36 "Hg (May 9, 6:00 AM)
Low39 °F (May 12, 5:00 AM)29% (May 16, 2:00 PM)29.74 "Hg (May 14, 5:00 AM)
Average59 °F67%30.03 "Hg
* Reported May 9 6:00 AM — May 24 6:30 AM, Piešťany, Weather by CustomWeather, © 2015

Note: Actual official high and low records may vary slightly from our data, if they occured in-between our weather recording intervals... More about our weather records

Advertising

Piešťany weather history for previous 24 hours

 ConditionsComfort  
Time TempWeatherWind HumidityBarometerVisibility
6:30 AM
Sun, May 24
54 °FPartly sunny.2 mph94%29.98 "HgN/A
6:00 AM54 °FPartly sunny.6 mph94%29.95 "HgN/A
5:30 AM54 °FOvercast.3 mph88%29.95 "HgN/A
5:00 AM52 °FMostly cloudy.5 mph94%29.95 "Hg6 mi
4:30 AM52 °FPartly cloudy.6 mph94%29.95 "Hg6 mi
4:00 AM54 °FLow clouds.3 mph94%29.95 "HgN/A
3:30 AM52 °FFog.2 mph94%29.95 "Hg2 mi
3:00 AM52 °FOvercast.5 mph94%29.95 "HgN/A
2:30 AM52 °FOvercast.3 mph94%29.95 "HgN/A
2:00 AM52 °FPassing clouds.3 mph94%29.95 "HgN/A
1:30 AM54 °FPassing clouds.1 mph94%29.95 "HgN/A
1:00 AM54 °FOvercast.7 mph94%29.95 "HgN/A
12:30 AM54 °FPassing clouds.12 mph94%29.92 "HgN/A
12:00 AM54 °FLight rain. Mostly cloudy.10 mph94%29.92 "Hg2 mi
11:30 PM
Sat, May 23
54 °FDrizzle. Overcast.6 mph94%29.95 "Hg2 mi
11:00 PM55 °FDrizzle. Overcast.6 mph88%29.95 "Hg6 mi
10:30 PM55 °FOvercast.6 mph88%29.92 "HgN/A
10:00 PM55 °FMostly cloudy.9 mph88%29.92 "HgN/A
9:30 PM55 °FBroken clouds.9 mph88%29.92 "HgN/A
9:00 PM55 °FBroken clouds.10 mph88%29.92 "HgN/A
8:30 PM55 °FPartly sunny.10 mph88%29.92 "HgN/A
8:00 PM55 °FPartly sunny.12 mph88%29.89 "HgN/A
7:30 PM55 °FMostly cloudy.10 mph94%29.89 "HgN/A
7:00 PM55 °FLight rain. More clouds than sun.13 mph94%29.89 "Hg5 mi
6:30 PM55 °FRain. More clouds than sun.10 mph94%29.89 "Hg2 mi
6:00 PM57 °FRain. Cloudy.10 mph88%29.89 "Hg4 mi
5:30 PM57 °FLight rain. More clouds than sun.13 mph82%29.89 "HgN/A
5:00 PM59 °FLight rain. More clouds than sun.15 mph82%29.89 "HgN/A
4:30 PM59 °FLight rain. More clouds than sun.14 mph82%29.89 "HgN/A
4:00 PM59 °FLight rain. More clouds than sun.15 mph82%29.89 "HgN/A
3:30 PM59 °FRain. Mostly cloudy.14 mph82%29.89 "HgN/A
3:00 PM59 °FRain. More clouds than sun.10 mph88%29.89 "HgN/A
2:30 PM59 °FLight rain. More clouds than sun.7 mph82%29.89 "HgN/A
2:00 PM59 °FLight rain. Broken clouds.5 mph88%29.92 "HgN/A
1:30 PM59 °FLight rain. Broken clouds.9 mph82%29.92 "HgN/A
1:00 PM59 °FBroken clouds.10 mph82%29.92 "HgN/A
12:30 PM59 °FLight rain. Cloudy.12 mph82%29.92 "HgN/A
12:00 PM57 °FRain. Mostly cloudy.15 mph82%29.92 "HgN/A
11:30 AM59 °FMore clouds than sun.16 mph72%29.89 "HgN/A
11:00 AM59 °FMore clouds than sun.17 mph77%29.92 "HgN/A
10:30 AM61 °FBroken clouds.18 mph72%29.89 "HgN/A
10:00 AM59 °FBroken clouds.16 mph77%29.92 "HgN/A
9:30 AM55 °FLight rain. Clear.15 mph82%29.92 "HgN/A
9:00 AM57 °FLight rain. Clear.16 mph77%29.92 "HgN/A
8:30 AM55 °FSunny.14 mph77%29.92 "Hg10 mi
8:00 AM55 °FSunny.15 mph77%29.92 "Hg10 mi
7:30 AM55 °FLight rain. Clear.16 mph77%29.92 "HgN/A
7:00 AM55 °FSunny.15 mph77%29.92 "Hg10 mi
Weather by CustomWeather, © 2015

See weather overviewHow to use our weather pages